Overview Statistics Trail Chart Weather Telemetry Raw packets
 

This is the latest recevied weather packets stored in our database for station/object K9MWD. If no packets are shown the sender has not sent any weather packets the latest 10 day(s).

<< 25 26 27 28 29 30 31 >>
Time Temp. Humidity Pressure Rain* Wind** Luminosity Snow
1788461830 29.44° C 70% 1013.2 hPa 0 mm - 388 W/m² -
1788461524 30° C 68% 1013.6 hPa 0 mm - 357 W/m² -
1788461221 30° C 69% 1013.6 hPa 0 mm - 391 W/m² -
1788460920 30° C 69% 1013.5 hPa 0 mm - 578 W/m² -
1788460615 30° C 68% 1013.7 hPa 0 mm - 516 W/m² -
1788460310 30.56° C 68% 1013.5 hPa 0 mm - 621 W/m² -
1788460009 30° C 70% 1013.7 hPa 0 mm - 646 W/m² -
1788459705 29.44° C 71% 1013.8 hPa 0 mm - 518 W/m² -
1788459403 29.44° C 71% 1013.9 hPa 0 mm - 493 W/m² -
1788459098 29.44° C 71% 1013.9 hPa 0 mm - 489 W/m² -
1788458794 28.89° C 72% 1014.1 hPa 0 mm - 455 W/m² -
1788458494 28.89° C 72% 1014.3 hPa 0 mm - 455 W/m² -
1788458193 28.89° C 73% 1014.2 hPa 0 mm - 527 W/m² -
1788457892 28.89° C 73% 1014.4 hPa 0 mm - 451 W/m² -
1788457587 28.89° C 73% 1014.4 hPa 0 mm - 529 W/m² -
1788457282 28.89° C 73% 1014.3 hPa 0 mm - 508 W/m² -
1788456977 28.89° C 73% 1014.5 hPa 0 mm - 513 W/m² -
1788456673 28.89° C 74% 1014.4 hPa 0 mm - 487 W/m² -
1788456368 28.33° C 75% 1014.6 hPa 0 mm - 486 W/m² -
1788456063 28.33° C 75% 1014.7 hPa 0 mm - 418 W/m² -
1788455763 27.78° C 76% 1014.7 hPa 0 mm - 459 W/m² -
1788455459 27.78° C 76% 1014.7 hPa 0 mm - 354 W/m² -
1788455157 27.78° C 77% 1014.6 hPa 0 mm - 289 W/m² -
1788454853 27.78° C 77% 1014.6 hPa 0 mm - 297 W/m² -
1788454550 27.22° C 77% 1014.8 hPa 0 mm - 292 W/m² -

* Rain latest hour (hover to see other rain measurements)
** Current wind speed in m/s (hover to see current wind gust speed)